Date String (YYYY-MM-DD hh:mm:ss) UTC,Instrument flags,absolute air pressure of the measurement (hPa),sample flow rate (lpm),inlet stack bypass flow (lpm),air temperature of the measurement (°C),ambient temperature measured by the external sensor (°C),aerosol sample conditioner tube jacket temperature (°C),OPC LED temperature (°C),internal box temperature (°C),relative humidity of the measurement (%),span deviation,mass concentration of particles derived from Lorenz-Mie calculation of OPC scattering (μg/m³),mass concentration of particles derived from Lorenz-Mie calculation of OPC scattering (μg/m³),mass concentration of particles derived from Lorenz-Mie calculation of OPC scattering (μg/m³)
DateTimeUTC,F1_M11,P_M11,Q1_M11,Q2_M11,T1_M11,T2_M11,T3_M11,T4_M11,T5_M11,U1_M11,ZSPAN_M11,X2_M11,X0_M11,X1_M11
2023-06-06 01:00:00,SystemResetWarning,0833.5,5.00,000.00,029.8,026.4,000.0,038.1,031.3,27.6,0000.0,0002.90,0005.22,0002.25
2023-06-06 01:01:00,SystemResetWarning,0833.5,5.00,000.00,029.8,024.9,000.0,038.1,031.2,26.9,0000.0,0003.06,0005.73,0002.29
2023-06-06 01:02:00,SystemResetWarning,0833.4,5.01,000.00,029.7,024.9,000.0,038.0,030.7,27.7,0000.0,0003.11,0006.02,0002.31
2023-06-06 01:03:00,SystemResetWarning,0833.4,5.01,000.00,029.5,025.2,000.0,038.0,030.5,28.5,0000.0,0003.21,0006.45,0002.38
2023-06-06 01:04:00,SystemResetWarning,0833.4,5.00,000.00,029.5,025.6,000.0,038.0,030.5,28.9,0000.0,0003.34,0007.03,0002.48
2023-06-06 01:05:00,SystemResetWarning,0833.5,5.00,000.00,029.4,026.0,000.0,038.0,030.6,28.9,0000.0,0003.51,0007.52,0002.59
2023-06-06 01:06:00,SystemResetWarning,0833.4,5.00,000.00,029.4,026.4,000.0,038.0,030.7,28.3,0000.0,0003.64,0007.78,0002.69
2023-06-06 01:07:00,SystemResetWarning,0833.4,5.00,000.00,029.4,026.7,000.0,038.0,030.7,27.7,0000.0,0003.68,0007.92,0002.74
2023-06-06 01:08:00,SystemResetWarning,0833.4,5.00,000.00,029.4,027.0,000.0,038.0,030.8,28.4,0000.0,0003.79,0008.10,0002.82
2023-06-06 01:09:00,SystemResetWarning,0833.4,5.01,000.00,029.4,027.2,000.0,038.0,030.8,29.0,0000.0,0003.95,0008.35,0002.94
2023-06-06 01:10:00,SystemResetWarning,0833.4,4.99,000.00,029.4,027.4,000.0,038.0,030.8,29.3,0000.0,0004.08,0008.64,0003.06
2023-06-06 01:11:00,SystemResetWarning,0833.4,4.99,000.00,029.4,027.5,000.0,038.0,030.8,29.3,0000.0,0004.15,0008.62,0003.11
2023-06-06 01:12:00,SystemResetWarning,0833.4,5.00,000.00,029.4,027.6,000.0,038.0,030.8,29.4,0000.0,0004.23,0008.72,0003.16
2023-06-06 01:13:00,SystemResetWarning,0833.4,4.99,000.00,029.4,027.7,000.0,038.0,030.9,29.1,0000.0,0004.31,0008.92,0003.21
2023-06-06 01:14:00,SystemResetWarning,0833.4,5.00,000.00,029.4,027.8,000.0,038.0,030.9,26.9,0000.0,0004.28,0008.86,0003.20
2023-06-06 01:15:00,SystemResetWarning,0833.4,5.00,000.00,029.4,027.9,000.0,038.0,030.9,27.0,0000.0,0004.21,0008.68,0003.18
2023-06-06 01:16:00,SystemResetWarning,0833.4,5.00,000.00,029.5,027.9,000.0,038.0,031.0,29.1,0000.0,0004.15,0008.59,0003.18
2023-06-06 01:17:00,SystemResetWarning,0833.3,5.00,000.00,029.5,028.0,000.0,038.0,031.0,29.5,0000.0,0004.16,0008.72,0003.19
2023-06-06 01:18:00,SystemResetWarning,0833.3,5.00,000.00,029.5,028.1,000.0,038.0,031.0,29.2,0000.0,0004.18,0009.03,0003.21
2023-06-06 01:19:00,SystemResetWarning,0833.3,5.00,000.00,029.5,028.1,000.0,038.0,031.0,29.5,0000.0,0004.26,0009.61,0003.25
2023-06-06 01:20:00,SystemResetWarning,0833.3,5.01,000.00,029.5,028.2,000.0,038.0,031.0,28.0,0000.0,0004.25,0009.51,0003.25
2023-06-06 01:21:00,SystemResetWarning,0833.3,5.00,000.00,029.6,028.2,000.0,038.0,031.1,25.9,0000.0,0004.12,0009.18,0003.20
2023-06-06 01:22:00,SystemResetWarning,0833.3,4.99,000.00,029.6,028.2,000.0,038.0,031.1,25.4,0000.0,0004.00,0008.88,0003.16
2023-06-06 01:23:00,SystemResetWarning,0833.3,5.00,000.00,029.6,028.3,000.0,038.1,031.1,24.9,0000.0,0003.83,0008.63,0003.09
2023-06-06 01:24:00,SystemResetWarning,0833.2,5.00,000.00,029.6,028.3,000.0,038.1,031.1,24.8,0000.0,0003.72,0008.52,0002.97
2023-06-06 01:25:00,SystemResetWarning,0833.3,5.01,000.00,029.7,028.3,000.0,038.1,031.2,26.6,0000.0,0003.66,0008.33,0002.93
2023-06-06 01:26:00,SystemResetWarning,0833.3,5.01,000.00,029.7,028.4,000.0,038.1,031.2,26.1,0000.0,0003.66,0008.53,0002.93
2023-06-06 01:27:00,SystemResetWarning,0833.3,5.00,000.00,029.7,028.4,000.0,038.1,031.2,24.5,0000.0,0003.58,0008.67,0002.85
2023-06-06 01:28:00,SystemResetWarning,0833.2,5.00,000.00,029.7,028.4,000.0,038.2,031.2,25.3,0000.0,0003.45,0008.30,0002.73
2023-06-06 01:29:00,SystemResetWarning,0833.3,4.98,000.00,029.7,028.4,000.0,038.2,031.3,26.1,0000.0,0003.39,0007.90,0002.65
2023-06-06 01:30:00,SystemResetWarning,0833.3,5.00,000.00,029.8,028.4,000.0,038.2,031.3,26.2,0000.0,0003.29,0007.12,0002.55
2023-06-06 01:31:00,SystemResetWarning,0833.3,5.01,000.00,029.8,028.5,000.0,038.2,031.3,25.8,0000.0,0003.18,0006.79,0002.46
2023-06-06 01:32:00,SystemResetWarning,0833.3,5.01,000.00,029.8,028.5,000.0,038.2,031.3,24.8,0000.0,0003.17,0006.86,0002.44
2023-06-06 01:33:00,SystemResetWarning,0833.2,5.01,000.00,029.8,028.5,000.0,038.3,031.4,25.0,0000.0,0003.20,0006.95,0002.46
2023-06-06 01:34:00,SystemResetWarning,0833.2,4.98,000.00,029.9,028.5,000.0,038.3,031.4,25.0,0000.0,0003.22,0006.76,0002.49
2023-06-06 01:35:00,SystemResetWarning,0833.2,5.00,000.00,029.9,028.5,000.0,038.3,031.4,25.6,0000.0,0003.24,0006.52,0002.54
2023-06-06 01:36:00,SystemResetWarning,0833.2,5.00,000.00,029.9,028.2,000.0,038.3,031.4,25.7,0000.0,0003.24,0006.58,0002.55
2023-06-06 01:37:00,SystemResetWarning,0833.2,5.00,000.00,029.9,026.1,000.0,038.2,031.4,25.9,0000.0,0003.25,0006.41,0002.57
2023-06-06 01:38:00,SystemResetWarning,0833.2,5.00,000.00,029.9,025.0,000.0,038.2,031.3,26.1,0000.0,0003.29,0005.86,0002.62
2023-06-06 01:39:00,SystemResetWarning,0833.2,5.01,000.00,029.8,025.1,000.0,038.2,030.9,26.3,0000.0,0003.30,0005.70,0002.68
2023-06-06 01:40:00,SystemResetWarning,0833.1,5.01,000.00,029.6,025.4,000.0,038.2,030.7,26.1,0000.0,0003.31,0005.71,0002.73
2023-06-06 01:41:00,SystemResetWarning,0833.2,5.00,000.00,029.6,025.8,000.0,038.1,030.7,26.1,0000.0,0003.32,0005.68,0002.80
2023-06-06 01:42:00,SystemResetWarning,0833.2,5.00,000.00,029.5,026.2,000.0,038.1,030.7,26.1,0000.0,0003.32,0005.54,0002.87
2023-06-06 01:43:00,SystemResetWarning,0833.2,5.00,000.00,029.5,026.6,000.0,038.1,030.8,26.1,0000.0,0003.35,0005.46,0002.93
2023-06-06 01:44:00,SystemResetWarning,0833.2,5.00,000.00,029.5,026.9,000.0,038.1,030.8,26.3,0000.0,0003.36,0005.40,0002.98
2023-06-06 01:45:00,SystemResetWarning,0833.2,5.00,000.00,029.5,027.1,000.0,038.1,030.9,26.3,0000.0,0003.38,0005.48,0003.02
2023-06-06 01:46:00,SystemResetWarning,0833.2,5.00,000.00,029.5,027.3,000.0,038.1,030.9,26.6,0000.0,0003.39,0005.45,0003.05
2023-06-06 01:47:00,SystemResetWarning,0833.2,5.00,000.00,029.5,027.5,000.0,038.1,030.9,26.6,0000.0,0003.43,0005.41,0003.09
2023-06-06 01:48:00,SystemResetWarning,0833.2,5.00,000.00,029.5,027.6,000.0,038.1,030.9,27.5,0000.0,0003.44,0005.30,0003.10
2023-06-06 01:49:00,SystemResetWarning,0833.2,5.00,000.00,029.5,027.7,000.0,038.1,030.9,26.5,0000.0,0003.43,0005.24,0003.10
2023-06-06 01:50:00,SystemResetWarning,0833.2,5.00,000.00,029.5,027.8,000.0,038.1,031.0,26.2,0000.0,0003.46,0005.32,0003.11
2023-06-06 01:51:00,SystemResetWarning,0833.2,5.00,000.00,029.5,027.9,000.0,038.1,031.0,26.0,0000.0,0003.47,0005.36,0003.10
2023-06-06 01:52:00,SystemResetWarning,0833.2,5.00,000.00,029.5,028.0,000.0,038.1,031.0,27.2,0000.0,0003.46,0005.37,0003.07
2023-06-06 01:53:00,SystemResetWarning,0833.2,5.00,000.00,029.6,028.0,000.0,038.1,031.0,28.9,0000.0,0003.47,0005.72,0003.03
2023-06-06 01:54:00,SystemResetWarning,0833.3,5.00,000.00,029.6,028.0,000.0,038.1,031.0,29.4,0000.0,0003.50,0006.04,0003.02
2023-06-06 01:55:00,SystemResetWarning,0833.3,5.00,000.00,029.6,028.1,000.0,038.1,031.0,29.7,0000.0,0003.58,0006.48,0003.04
2023-06-06 01:56:00,SystemResetWarning,0833.3,5.00,000.00,029.6,028.1,000.0,038.1,031.0,29.6,0000.0,0003.66,0006.92,0003.04
2023-06-06 01:57:00,SystemResetWarning,0833.2,5.00,000.00,029.6,028.1,000.0,038.1,031.0,29.4,0000.0,0003.71,0007.24,0003.08
2023-06-06 01:58:00,SystemResetWarning,0833.3,5.00,000.00,029.6,028.1,000.0,038.1,031.0,29.5,0000.0,0003.78,0007.50,0003.08
2023-06-06 01:59:00,SystemResetWarning,0833.3,5.00,000.00,029.6,028.1,000.0,038.1,031.0,29.6,0000.0,0003.82,0008.13,0003.10
